{"data":{"norad_id":68958,"intl_designator":"2026-099H","name":"STARLINK-36242","alt_names":[],"object_type":"PAYLOAD","status":"ACTIVE","operator":null,"country":"US","launch_date":"2026-05-01","launch_site_code":"AFETR","launch_vehicle":null,"mission":null,"orbit_class":"UNKNOWN","rcs_meters":null,"size_class":null,"mass_kg":null,"dimensions":null,"purposes":["comms"],"wikipedia_slug":null,"has_3d_model":false,"image_url":null,"decayed_at":null,"tle_current":{"epoch":"2026-09-20T04:17:41.013024Z","epoch_age_seconds":47120,"freshness":"FRESH","line1":"1 68958U 26099H   26263.17894691  .00020209  00000+0  60734-3 0  9991","line2":"2 68958  53.1573  77.3927 0001226  83.6893 276.4249 15.34414927 21855","mean_motion":15.34414927,"eccentricity":0.0001226,"inclination_deg":53.1573,"raan_deg":77.3927,"arg_perigee_deg":83.6893,"mean_anomaly_deg":276.4249,"bstar":0.00060734,"rev_number":2185,"period_min":93.846845117403,"perigee_km":461.82019280285,"apogee_km":463.49755595125,"semimajor_km":6840.795874377,"source":"CELESTRAK","updated_at":"2026-09-20T09:00:44.052826Z"}}}